Weather in Indio

United States     33°43′35″N   116°13′35″W
temp.,
°C
wind,
m/s
gust,
m/s
humid.,
%
clouds,
%
prec.,
mm/h
press.,
hPa
HPBL,
m
16 may, sun
sun1623:00+18nw68490 0.0 1008262
02:00+16nw47520 0.0 1009202
05:00+15nw34550 0.0 1010106
08:00+18nw45460 0.0 1011692
11:00+23nw33300 0.0 10101278
14:00+27nnw44220 0.0 10082222
17:00+25nw98270 0.0 10071091
20:00+18nw810470 0.0 1009424
17 may, mon
mon1723:00+17nw795618 0.0 1010292
02:00+16nw68570 0.0 1010242
05:00+15nw57600 0.0 1011183
08:00+19wnw56440 0.0 1012546
11:00+25wnw22280 0.0 1011932
14:00+31sw13180 0.0 10091977
17:00+32wnw34180 0.0 10062192
20:00+25nw69370 0.0 1008312
18 may, tue
tue1823:00+22nw58460 0.0 1010256
02:00+20nw46480 0.0 1009143
05:00+19nw34503 0.0 100974
08:00+23nw23371 0.0 1010307
11:00+29s12220 0.0 1009899
14:00+35sse34140 0.0 10052038
17:00+37wnw14110 0.0 10033194
20:00+29nw44230 0.0 100593
19 may, wed
wed1923:00+26nw46320 0.0 100685
02:00+23nw33310 0.0 100624
05:00+21wnw333525 0.0 100626
08:00+26nw23240 0.0 1007396
11:00+31ese02150 0.0 10061313
14:00+35se25100 0.0 10032487
17:00+34wnw64135 0.0 10012139
20:00+26nw69270 0.0 1003250
20 may, thu
thu2023:00+23nw58350 0.0 1005178
02:00+20nnw46400 0.0 1005124
05:00+19nw33400 0.0 100543
08:00+23nw33290 0.0 1006441
11:00+28e14171 0.0 10051404
14:00+32w79120 0.0 10022408
17:00+29w78100 0.0 10021817
20:00+21nw69290 0.0 1004316